Weather in Severodvinsk

Russia / Arkhangel'skaya Oblast'     64°33′45″N   39°49′05″E
temp.,
°C
wind,
m/s
gust,
m/s
humid.,
%
clouds,
%
prec.,
mm/h
press.,
hPa
HPBL,
m
19 april, mon
mon1900:00−1sse236328 0.0 103747
03:00−1s23665 0.0 103759
06:00−1s246533 0.0 1036108
09:00+4s234677 0.0 1036527
12:00+6ssw2341100 0.0 1035818
15:00+7ssw3340100 0.0 1034881
18:00+6s2449100 0.0 1033263
21:00+3ssw356610 0.0 103376
20 april, tue
tue2000:00+1ssw36725 0.0 103392
03:000ssw25745 0.0 103269
06:00+1ssw26714 0.0 1032116
09:00+6ssw34500 0.0 1031441
12:00+9s34410 0.0 1030943
15:00+9s34380 0.0 10281082
18:00+9s35440 0.0 1027990
21:00+4sse24660 0.0 102765
21 april, wed
wed2100:00+2sse36720 0.0 102592
03:00+1sse3676100 0.0 1024109
06:00+1sse397280 0.0 1023196
09:00+6se51052100 0.0 1020625
12:00+8se6942100 0.0 1017903
15:00+9se51141100 0.0 10141025
18:00+8se61351100 0.0 10111166
21:00+4se61383100 0.1 1009992
22 april, thu
thu2200:00+3se51296100 0.4 1006746
03:00+3sse51196100 1.8 1005685
06:00+3sse51095100 1.1 1004746
09:00+3sse41197100 2.1 1003606
12:00+3sse51196100 1.1 1004692
15:00+5s5117185 2.0 10051154
18:00+6s41069100 0.1 10061121
21:00+3s498699 0.1 1007565
23 april, fri
fri2300:00+3ssw5108292 0.0 1008710
03:00+2ssw5128888 0.0 1010660
06:00+3ssw51081100 0.0 1012559
09:00+6ssw466717 0.0 1013709
12:00+8sse5762100 0.0 1014825
15:00+8sse41083100 0.9 10141045
18:00+8sse3884100 0.1 1014522
21:00+7se2592100 0.7 1014190